Time,TemperatureF,DewpointF,PressureIn,WindDirection,WindDirectionDegrees,WindSpeedMPH,WindSpeedGustMPH,Humidity,HourlyPrecipIn,Conditions,Clouds,dailyrainin,SolarRadiationWatts/m^2,SoftwareType,DateUTC
2013-02-11 00:04:00,50.2,46.8,29.73,South,189,7.0,11.0,88,0.00,RA,SCT,0.00,0.0,WeatherDisplay:10.37,2013-02-11 05:04:00,
2013-02-11 00:09:00,50.2,46.8,29.71,South,190,5.0,10.0,88,0.00,OVC,SCT,0.00,0.0,WeatherDisplay:10.37,2013-02-11 05:09:00,
2013-02-11 00:14:00,50.2,46.8,29.72,South,184,5.0,12.0,88,0.00,OVC,SCT,0.00,0.0,WeatherDisplay:10.37,2013-02-11 05:14:00,
2013-02-11 00:19:00,50.2,46.8,29.72,South,186,2.0,12.0,88,0.00,OVC,SCT,0.00,0.0,WeatherDisplay:10.37,2013-02-11 05:19:00,
2013-02-11 00:24:00,50.2,46.8,29.72,SSW,202,3.0,10.0,88,0.00,OVC,SCT,0.00,0.0,WeatherDisplay:10.37,2013-02-11 05:24:00,
2013-02-11 00:34:00,50.2,46.8,29.72,SSW,197,1.0,13.0,88,0.00,OVC,SCT,0.00,0.0,WeatherDisplay:10.37,2013-02-11 05:34:00,
2013-02-11 00:39:00,50.2,46.8,29.72,SSW,193,6.0,7.0,88,0.00,OVC,SCT,0.00,0.0,WeatherDisplay:10.37,2013-02-11 05:39:00,
2013-02-11 00:44:00,50.2,46.8,29.72,SSW,196,3.0,8.0,88,0.00,OVC,SCT,0.00,0.0,WeatherDisplay:10.37,2013-02-11 05:44:00,
2013-02-11 00:49:00,50.2,46.8,29.72,SSW,200,2.0,8.0,88,0.00,OVC,SCT,0.00,0.0,WeatherDisplay:10.37,2013-02-11 05:49:00,
2013-02-11 00:55:00,50.2,46.8,29.72,SSW,208,0.0,7.0,88,0.00,OVC,SCT,0.00,0.0,WeatherDisplay:10.37,2013-02-11 05:55:00,
2013-02-11 01:04:00,50.2,46.8,29.72,SSE,167,1.0,6.0,88,0.00,OVC,SCT,0.00,0.0,WeatherDisplay:10.37,2013-02-11 06:04:00,
2013-02-11 01:09:00,50.2,46.8,29.72,SSE,158,1.0,6.0,88,0.00,OVC,SCT,0.00,0.0,WeatherDisplay:10.37,2013-02-11 06:09:00,
2013-02-11 01:14:00,50.2,46.8,29.72,SSE,163,3.0,7.0,88,0.00,OVC,SCT,0.00,0.0,WeatherDisplay:10.37,2013-02-11 06:14:00,
2013-02-11 01:19:00,50.2,46.8,29.72,South,188,5.0,8.0,88,0.00,OVC,SCT,0.00,0.0,WeatherDisplay:10.37,2013-02-11 06:19:00,
2013-02-11 01:29:00,50.2,46.8,29.72,South,182,2.0,5.0,88,0.00,OVC,SCT,0.00,0.0,WeatherDisplay:10.37,2013-02-11 06:29:00,
2013-02-11 01:34:00,50.0,46.6,29.72,South,190,0.0,8.0,88,0.00,OVC,SCT,0.00,0.0,WeatherDisplay:10.37,2013-02-11 06:34:00,
2013-02-11 01:44:00,49.8,46.4,29.72,SSW,194,1.0,5.0,88,0.00,OVC,SCT,0.00,0.0,WeatherDisplay:10.37,2013-02-11 06:44:00,
2013-02-11 01:49:00,49.6,46.2,29.72,South,182,2.0,12.0,88,0.00,OVC,SCT,0.00,0.0,WeatherDisplay:10.37,2013-02-11 06:49:00,
2013-02-11 01:55:00,49.6,46.2,29.72,South,191,2.0,5.0,88,0.00,OVC,SCT,0.00,0.0,WeatherDisplay:10.37,2013-02-11 06:55:00,
2013-02-11 02:04:00,49.6,46.5,29.72,South,185,0.0,7.0,89,0.00,OVC,SCT,0.00,0.0,WeatherDisplay:10.37,2013-02-11 07:04:00,
2013-02-11 02:09:00,49.7,46.6,29.72,SSW,197,1.0,7.0,89,0.00,OVC,SCT,0.00,0.0,WeatherDisplay:10.37,2013-02-11 07:09:00,
2013-02-11 02:19:00,49.8,46.7,29.72,SW,236,1.0,4.0,89,0.00,BKN,SCT,0.00,0.0,WeatherDisplay:10.37,2013-02-11 07:19:00,
2013-02-11 02:24:00,49.8,46.4,29.72,WSW,241,0.0,5.0,88,0.00,BKN,SCT,0.00,0.0,WeatherDisplay:10.37,2013-02-11 07:24:00,
2013-02-11 02:29:00,50.1,46.7,29.72,SSW,212,3.0,7.0,88,0.00,BKN,SCT,0.00,0.0,WeatherDisplay:10.37,2013-02-11 07:29:00,
2013-02-11 02:34:00,50.0,46.6,29.72,SSW,204,2.0,7.0,88,0.00,SCT,SCT,0.00,0.0,WeatherDisplay:10.37,2013-02-11 07:34:00,
2013-02-11 02:39:00,49.9,46.5,29.72,SSW,209,2.0,7.0,88,0.00,SCT,SCT,0.00,0.0,WeatherDisplay:10.37,2013-02-11 07:39:00,
2013-02-11 02:49:00,50.2,46.5,29.72,SSW,201,8.0,14.0,87,0.00,SCT,SCT,0.00,0.0,WeatherDisplay:10.37,2013-02-11 07:49:00,
2013-02-11 02:54:00,50.2,46.2,29.72,South,191,3.0,8.0,86,0.00,SCT,SCT,0.00,0.0,WeatherDisplay:10.37,2013-02-11 07:54:00,
2013-02-11 02:59:00,50.2,45.8,29.72,SSW,209,2.0,7.0,85,0.00,SCT,SCT,0.00,0.0,WeatherDisplay:10.37,2013-02-11 07:59:00,
2013-02-11 03:25:00,50.2,44.6,29.72,SSW,204,6.0,9.0,81,0.00,SCT,SCT,0.00,0.0,WeatherDisplay:10.37,2013-02-11 08:25:00,
2013-02-11 03:30:00,50.2,44.2,29.72,SW,216,2.0,10.0,80,0.00,SCT,SCT,0.00,0.0,WeatherDisplay:10.37,2013-02-11 08:30:00,
2013-02-11 03:35:00,50.2,43.9,29.72,SW,219,0.0,10.0,79,0.00,FEW,SCT,0.00,0.0,WeatherDisplay:10.37,2013-02-11 08:35:00,
2013-02-11 03:40:00,50.2,43.6,29.72,SW,221,1.0,6.0,78,0.00,FEW,SCT,0.00,0.0,WeatherDisplay:10.37,2013-02-11 08:40:00,
2013-02-11 03:45:00,50.2,43.6,29.72,SW,228,1.0,5.0,78,0.00,FEW,SCT,0.00,0.0,WeatherDisplay:10.37,2013-02-11 08:45:00,
2013-02-11 03:50:00,49.8,42.9,29.72,SW,219,2.0,8.0,77,0.00,FEW,SCT,0.00,0.0,WeatherDisplay:10.37,2013-02-11 08:50:00,
2013-02-11 03:55:00,49.8,42.9,29.71,SW,215,1.0,10.0,77,0.00,FEW,SCT,0.00,0.0,WeatherDisplay:10.37,2013-02-11 08:55:00,
2013-02-11 04:00:00,49.8,42.6,29.71,SW,214,3.0,10.0,76,0.00,FEW,SCT,0.00,0.0,WeatherDisplay:10.37,2013-02-11 09:00:00,
2013-02-11 04:05:00,49.8,42.6,29.71,SSW,210,3.0,8.0,76,0.00,FEW,SCT,0.00,0.0,WeatherDisplay:10.37,2013-02-11 09:05:00,
2013-02-11 04:10:00,49.8,41.9,29.71,SSW,210,3.0,12.0,74,0.00,FEW,SCT,0.00,0.0,WeatherDisplay:10.37,2013-02-11 09:10:00,
2013-02-11 04:15:00,49.8,41.5,29.72,SW,225,6.0,9.0,73,0.00,FEW,SCT,0.00,0.0,WeatherDisplay:10.37,2013-02-11 09:15:00,
2013-02-11 04:20:00,49.8,40.8,29.72,SW,227,8.0,12.0,71,0.00,FEW,SCT,0.00,0.0,WeatherDisplay:10.37,2013-02-11 09:20:00,
2013-02-11 04:25:00,49.8,40.8,29.71,SW,232,7.0,10.0,71,0.00,FEW,SCT,0.00,0.0,WeatherDisplay:10.37,2013-02-11 09:25:00,
2013-02-11 04:30:00,49.8,40.4,29.72,SW,223,2.0,7.0,70,0.00,FEW,SCT,0.00,0.0,WeatherDisplay:10.37,2013-02-11 09:30:00,
2013-02-11 04:35:00,49.6,40.3,29.72,SSW,208,0.0,6.0,70,0.00,FEW,SCT,0.00,0.0,WeatherDisplay:10.37,2013-02-11 09:35:00,
2013-02-11 04:45:00,49.3,40.3,29.73,WSW,240,0.0,5.0,71,0.00,FEW,SCT,0.00,0.0,WeatherDisplay:10.37,2013-02-11 09:45:00,
2013-02-11 04:50:00,49.3,39.5,29.73,West,263,8.0,16.0,69,0.00,FEW,SCT,0.00,0.0,WeatherDisplay:10.37,2013-02-11 09:50:00,
2013-02-11 05:00:00,48.9,37.7,29.74,SW,229,5.0,8.0,65,0.00,FEW,SCT,0.00,0.0,WeatherDisplay:10.37,2013-02-11 10:00:00,
2013-02-11 05:05:00,48.7,37.1,29.74,SSW,211,3.0,7.0,64,0.00,FEW,SCT,0.00,0.0,WeatherDisplay:10.37,2013-02-11 10:05:00,
2013-02-11 05:10:00,48.6,36.9,29.74,SW,224,1.0,11.0,64,0.00,FEW,SCT,0.00,0.0,WeatherDisplay:10.37,2013-02-11 10:10:00,
2013-02-11 05:15:00,48.4,36.8,29.75,WSW,257,3.0,7.0,64,0.00,FEW,SCT,0.00,0.0,WeatherDisplay:10.37,2013-02-11 10:15:00,
2013-02-11 05:25:00,46.2,35.4,29.76,WSW,245,2.0,12.0,66,0.00,FEW,SCT,0.00,0.0,WeatherDisplay:10.37,2013-02-11 10:25:00,
2013-02-11 05:30:00,45.3,34.6,29.76,WSW,254,1.0,13.0,66,0.00,FEW,SCT,0.00,0.0,WeatherDisplay:10.37,2013-02-11 10:30:00,
2013-02-11 05:35:00,44.6,34.3,29.77,WNW,292,6.0,12.0,67,0.00,FEW,SCT,0.00,0.0,WeatherDisplay:10.37,2013-02-11 10:35:00,
2013-02-11 05:40:00,44.1,33.8,29.77,West,260,5.0,7.0,67,0.00,FEW,SCT,0.00,0.0,WeatherDisplay:10.37,2013-02-11 10:40:00,
2013-02-11 05:45:00,43.5,33.3,29.77,WSW,257,8.0,10.0,67,0.00,FEW,SCT,0.00,0.0,WeatherDisplay:10.37,2013-02-11 10:45:00,
2013-02-11 05:50:00,43.1,33.3,29.77,WSW,255,3.0,9.0,68,0.00,FEW,SCT,0.00,0.0,WeatherDisplay:10.37,2013-02-11 10:50:00,
2013-02-11 05:55:00,42.6,32.4,29.78,WSW,245,2.0,10.0,67,0.00,FEW,SCT,0.00,0.0,WeatherDisplay:10.37,2013-02-11 10:55:00,
2013-02-11 06:00:00,42.4,32.6,29.78,WSW,249,5.0,8.0,68,0.00,FEW,SCT,0.00,0.0,WeatherDisplay:10.37,2013-02-11 11:00:00,
2013-02-11 06:05:00,42.1,32.3,29.78,WSW,241,3.0,9.0,68,0.00,FEW,SCT,0.00,0.0,WeatherDisplay:10.37,2013-02-11 11:05:00,
2013-02-11 06:10:00,42.1,32.3,29.79,WSW,251,6.0,9.0,68,0.00,FEW,SCT,0.00,0.0,WeatherDisplay:10.37,2013-02-11 11:10:00,
2013-02-11 06:15:00,41.9,32.1,29.79,WSW,258,2.0,9.0,68,0.00,FEW,SCT,0.00,0.0,WeatherDisplay:10.37,2013-02-11 11:15:00,
2013-02-11 06:20:00,41.7,31.9,29.79,WSW,252,3.0,15.0,68,0.00,BKN,SCT,0.00,0.0,WeatherDisplay:10.37,2013-02-11 11:20:00,
2013-02-11 06:25:00,41.7,31.9,29.80,WSW,245,6.0,15.0,68,0.00,BKN,SCT,0.00,0.0,WeatherDisplay:10.37,2013-02-11 11:25:00,
2013-02-11 06:30:00,41.5,31.8,29.80,WSW,256,3.0,15.0,68,0.00,BKN,SCT,0.00,0.0,WeatherDisplay:10.37,2013-02-11 11:30:00,
2013-02-11 06:35:00,41.4,31.9,29.80,WSW,253,5.0,10.0,69,0.00,BKN,SCT,0.00,0.0,WeatherDisplay:10.37,2013-02-11 11:35:00,
2013-02-11 06:40:00,41.2,31.8,29.80,WSW,248,5.0,14.0,69,0.00,BKN,SCT,0.00,0.0,WeatherDisplay:10.37,2013-02-11 11:40:00,
2013-02-11 06:45:00,41.2,31.8,29.80,WSW,250,2.0,10.0,69,0.00,BKN,SCT,0.00,0.0,WeatherDisplay:10.37,2013-02-11 11:45:00,
2013-02-11 06:50:00,41.0,31.6,29.80,WSW,237,3.0,12.0,69,0.00,BKN,SCT,0.00,0.0,WeatherDisplay:10.37,2013-02-11 11:50:00,
2013-02-11 06:55:00,41.2,31.8,29.80,SW,231,0.0,6.0,69,0.00,BKN,SCT,0.00,0.0,WeatherDisplay:10.37,2013-02-11 11:55:00,
2013-02-11 07:00:00,41.2,31.8,29.80,WSW,238,6.0,7.0,69,0.00,BKN,SCT,0.00,0.0,WeatherDisplay:10.37,2013-02-11 12:00:00,
2013-02-11 07:05:00,41.2,31.8,29.80,SW,221,6.0,8.0,69,0.00,BKN,SCT,0.00,0.0,WeatherDisplay:10.37,2013-02-11 12:05:00,
2013-02-11 07:10:00,41.4,31.6,29.80,SSW,195,6.0,7.0,68,0.00,BKN,SCT,0.00,0.0,WeatherDisplay:10.37,2013-02-11 12:10:00,
2013-02-11 07:15:00,41.4,31.6,29.80,WSW,239,6.0,7.0,68,0.00,BKN,SCT,0.00,0.0,WeatherDisplay:10.37,2013-02-11 12:15:00,
2013-02-11 07:20:00,41.2,31.4,29.81,West,273,6.0,6.0,68,0.00,BKN,SCT,0.00,0.0,WeatherDisplay:10.37,2013-02-11 12:20:00,
2013-02-11 07:25:00,41.2,31.4,29.81,WSW,245,1.0,9.0,68,0.00,BKN,SCT,0.00,0.0,WeatherDisplay:10.37,2013-02-11 12:25:00,
2013-02-11 07:30:00,40.8,31.1,29.81,SSW,194,5.0,9.0,68,0.00,BKN,SCT,0.00,0.0,WeatherDisplay:10.37,2013-02-11 12:30:00,
2013-02-11 07:35:00,40.5,30.7,29.82,WNW,292,5.0,11.0,68,0.00,BKN,SCT,0.00,0.0,WeatherDisplay:10.37,2013-02-11 12:35:00,
2013-02-11 07:40:00,40.1,30.0,29.82,WSW,255,1.0,10.0,67,0.00,BKN,SCT,0.00,0.0,WeatherDisplay:10.37,2013-02-11 12:40:00,
2013-02-11 07:45:00,39.9,29.8,29.82,WSW,255,6.0,7.0,67,0.00,BKN,SCT,0.00,0.0,WeatherDisplay:10.37,2013-02-11 12:45:00,
2013-02-11 07:50:00,39.7,29.7,29.83,WSW,256,3.0,12.0,67,0.00,BKN,SCT,0.00,0.0,WeatherDisplay:10.37,2013-02-11 12:50:00,
2013-02-11 07:55:00,39.6,29.5,29.83,WSW,245,5.0,9.0,67,0.00,BKN,SCT,0.00,0.0,WeatherDisplay:10.37,2013-02-11 12:55:00,
2013-02-11 08:05:00,39.0,28.2,29.84,WSW,255,12.0,14.0,65,0.00,BKN,SCT,0.00,0.0,WeatherDisplay:10.37,2013-02-11 13:05:00,
2013-02-11 08:15:00,39.0,27.9,29.85,WSW,237,7.0,10.0,64,0.00,BKN,SCT,0.00,0.0,WeatherDisplay:10.37,2013-02-11 13:15:00,
2013-02-11 08:30:00,38.8,28.1,29.85,SSW,212,3.0,7.0,65,0.00,BKN,SCT,0.00,0.0,WeatherDisplay:10.37,2013-02-11 13:30:00,
2013-02-11 08:35:00,38.8,28.1,29.85,SW,232,1.0,8.0,65,0.00,BKN,SCT,0.00,0.0,WeatherDisplay:10.37,2013-02-11 13:35:00,
2013-02-11 08:45:00,38.8,28.1,29.84,SW,235,7.0,15.0,65,0.00,BKN,SCT,0.00,0.0,WeatherDisplay:10.37,2013-02-11 13:45:00,
2013-02-11 08:50:00,38.8,27.7,29.85,WSW,257,2.0,13.0,64,0.00,BKN,SCT,0.00,0.0,WeatherDisplay:10.37,2013-02-11 13:50:00,
2013-02-11 09:00:00,38.8,27.7,29.84,SW,217,3.0,22.0,64,0.00,BKN,SCT,0.00,0.0,WeatherDisplay:10.37,2013-02-11 14:00:00,
2013-02-11 09:10:00,39.0,27.9,29.85,SW,221,3.0,10.0,64,0.00,BKN,SCT,0.00,0.0,WeatherDisplay:10.37,2013-02-11 14:10:00,
2013-02-11 09:15:00,39.0,28.2,29.86,WSW,242,5.0,10.0,65,0.00,BKN,SCT,0.00,0.0,WeatherDisplay:10.37,2013-02-11 14:15:00,
2013-02-11 09:20:00,39.0,28.2,29.86,WSW,243,2.0,8.0,65,0.00,BKN,SCT,0.00,0.0,WeatherDisplay:10.37,2013-02-11 14:20:00,
2013-02-11 09:30:00,39.0,28.2,29.86,WSW,244,5.0,14.0,65,0.00,BKN,SCT,0.00,0.0,WeatherDisplay:10.37,2013-02-11 14:30:00,
2013-02-11 09:35:00,39.0,27.9,29.86,WSW,244,3.0,12.0,64,0.00,BKN,SCT,0.00,0.0,WeatherDisplay:10.37,2013-02-11 14:35:00,
2013-02-11 09:40:00,38.9,27.7,29.87,SW,225,6.0,9.0,64,0.00,BKN,SCT,0.00,0.0,WeatherDisplay:10.37,2013-02-11 14:40:00,
2013-02-11 09:50:00,39.0,27.9,29.87,West,262,8.0,14.0,64,0.00,BKN,SCT,0.00,0.0,WeatherDisplay:10.37,2013-02-11 14:50:00,
2013-02-11 10:00:00,39.0,27.5,29.87,WSW,246,5.0,13.0,63,0.00,BKN,SCT,0.00,0.0,WeatherDisplay:10.37,2013-02-11 15:00:00,
2013-02-11 10:05:00,38.8,27.3,29.88,SW,233,5.0,15.0,63,0.00,BKN,SCT,0.00,0.0,WeatherDisplay:10.37,2013-02-11 15:05:00,
2013-02-11 10:10:00,38.6,27.1,29.88,SW,235,3.0,9.0,63,0.00,BKN,SCT,0.00,0.0,WeatherDisplay:10.37,2013-02-11 15:10:00,
2013-02-11 10:15:00,38.5,26.6,29.88,WSW,237,8.0,22.0,62,0.00,BKN,SCT,0.00,0.0,WeatherDisplay:10.37,2013-02-11 15:15:00,
2013-02-11 10:20:00,38.3,26.4,29.88,SW,229,10.0,16.0,62,0.00,OVC,SCT,0.00,0.0,WeatherDisplay:10.37,2013-02-11 15:20:00,
2013-02-11 10:30:00,38.3,26.4,29.89,WSW,248,6.0,10.0,62,0.00,OVC,SCT,0.00,0.0,WeatherDisplay:10.37,2013-02-11 15:30:00,
2013-02-11 10:35:00,38.3,26.4,29.89,SW,231,5.0,14.0,62,0.00,OVC,SCT,0.00,0.0,WeatherDisplay:10.37,2013-02-11 15:35:00,
2013-02-11 10:45:00,38.0,25.7,29.90,WSW,254,12.0,19.0,61,0.00,OVC,SCT,0.00,0.0,WeatherDisplay:10.37,2013-02-11 15:45:00,
2013-02-11 10:50:00,38.1,26.2,29.90,WSW,251,5.0,13.0,62,0.00,OVC,SCT,0.00,0.0,WeatherDisplay:10.37,2013-02-11 15:50:00,
2013-02-11 10:55:00,37.9,26.1,29.90,West,259,7.0,18.0,62,0.00,OVC,SCT,0.00,0.0,WeatherDisplay:10.37,2013-02-11 15:55:00,
2013-02-11 11:05:00,37.6,25.7,29.91,SW,223,8.0,13.0,62,0.00,OVC,SCT,0.00,0.0,WeatherDisplay:10.37,2013-02-11 16:05:00,
2013-02-11 11:10:00,37.5,26.0,29.91,SW,231,2.0,14.0,63,0.00,OVC,SCT,0.00,0.0,WeatherDisplay:10.37,2013-02-11 16:10:00,
2013-02-11 11:15:00,37.6,26.1,29.91,WSW,252,2.0,7.0,63,0.00,OVC,SCT,0.00,0.0,WeatherDisplay:10.37,2013-02-11 16:15:00,
2013-02-11 11:20:00,37.6,26.5,29.91,WSW,247,7.0,10.0,64,0.00,OVC,SCT,0.00,0.0,WeatherDisplay:10.37,2013-02-11 16:20:00,
2013-02-11 11:25:00,37.6,26.5,29.91,WSW,246,7.0,10.0,64,0.00,OVC,SCT,0.00,0.0,WeatherDisplay:10.37,2013-02-11 16:25:00,
2013-02-11 11:30:00,37.6,26.5,29.91,West,264,2.0,14.0,64,0.00,OVC,SCT,0.00,0.0,WeatherDisplay:10.37,2013-02-11 16:30:00,
2013-02-11 11:40:00,37.9,26.8,29.91,WSW,258,7.0,13.0,64,0.00,OVC,SCT,0.00,0.0,WeatherDisplay:10.37,2013-02-11 16:40:00,
2013-02-11 11:45:00,37.9,26.5,29.92,SW,234,6.0,13.0,63,0.00,OVC,SCT,0.00,0.0,WeatherDisplay:10.37,2013-02-11 16:45:00,
2013-02-11 11:55:00,38.1,26.6,29.92,SW,225,7.0,13.0,63,0.00,OVC,SCT,0.00,0.0,WeatherDisplay:10.37,2013-02-11 16:55:00,
2013-02-11 12:00:00,38.1,26.6,29.93,SSW,213,1.0,5.0,63,0.00,OVC,SCT,0.00,0.0,WeatherDisplay:10.37,2013-02-11 17:00:00,
2013-02-11 12:05:00,38.3,26.8,29.92,SW,219,5.0,9.0,63,0.00,OVC,SCT,0.00,0.0,WeatherDisplay:10.37,2013-02-11 17:05:00,
2013-02-11 12:10:00,38.4,26.9,29.92,SW,227,2.0,10.0,63,0.00,OVC,SCT,0.00,0.0,WeatherDisplay:10.37,2013-02-11 17:10:00,
2013-02-11 12:20:00,38.8,27.3,29.92,SW,226,6.0,12.0,63,0.00,OVC,SCT,0.00,0.0,WeatherDisplay:10.37,2013-02-11 17:20:00,
2013-02-11 12:25:00,38.8,27.3,29.92,SW,227,7.0,16.0,63,0.00,OVC,SCT,0.00,0.0,WeatherDisplay:10.37,2013-02-11 17:25:00,
2013-02-11 12:35:00,39.1,27.6,29.92,SW,223,3.0,13.0,63,0.00,OVC,SCT,0.00,0.0,WeatherDisplay:10.37,2013-02-11 17:35:00,
2013-02-11 12:40:00,39.4,27.4,29.92,SW,227,2.0,14.0,62,0.00,OVC,SCT,0.00,0.0,WeatherDisplay:10.37,2013-02-11 17:40:00,
2013-02-11 12:45:00,39.4,27.4,29.92,WSW,250,5.0,13.0,62,0.00,OVC,SCT,0.00,0.0,WeatherDisplay:10.37,2013-02-11 17:45:00,
2013-02-11 12:55:00,39.7,28.2,29.92,WSW,249,5.0,9.0,63,0.00,OVC,SCT,0.00,0.0,WeatherDisplay:10.37,2013-02-11 17:55:00,
2013-02-11 13:00:00,39.7,27.8,29.92,WSW,242,5.0,8.0,62,0.00,OVC,SCT,0.00,0.0,WeatherDisplay:10.37,2013-02-11 18:00:00,
2013-02-11 13:10:00,39.7,28.5,29.93,WSW,257,3.0,8.0,64,0.00,BKN,SCT,0.00,0.0,WeatherDisplay:10.37,2013-02-11 18:10:00,
2013-02-11 13:20:00,39.7,28.2,29.93,SW,222,2.0,9.0,63,0.00,BKN,SCT,0.00,0.0,WeatherDisplay:10.37,2013-02-11 18:20:00,
2013-02-11 13:25:00,39.6,28.0,29.93,SW,226,1.0,14.0,63,0.00,BKN,SCT,0.00,0.0,WeatherDisplay:10.37,2013-02-11 18:25:00,
2013-02-11 13:35:00,39.4,28.2,29.93,WSW,256,3.0,9.0,64,0.00,BKN,SCT,0.00,0.0,WeatherDisplay:10.37,2013-02-11 18:35:00,
2013-02-11 13:40:00,39.4,28.2,29.93,West,265,3.0,7.0,64,0.00,BKN,SCT,0.00,0.0,WeatherDisplay:10.37,2013-02-11 18:40:00,
2013-02-11 13:45:00,39.6,28.4,29.93,WSW,258,5.0,8.0,64,0.00,BKN,SCT,0.00,0.0,WeatherDisplay:10.37,2013-02-11 18:45:00,
2013-02-11 13:50:00,39.6,28.4,29.93,WSW,242,3.0,8.0,64,0.00,BKN,SCT,0.00,0.0,WeatherDisplay:10.37,2013-02-11 18:50:00,
2013-02-11 14:00:00,39.4,28.2,29.93,WSW,257,5.0,10.0,64,0.00,BKN,SCT,0.00,0.0,WeatherDisplay:10.37,2013-02-11 19:00:00,
2013-02-11 14:10:00,39.5,28.3,29.94,West,267,6.0,10.0,64,0.00,BKN,SCT,0.00,0.0,WeatherDisplay:10.37,2013-02-11 19:10:00,
2013-02-11 14:15:00,39.5,27.9,29.93,West,274,2.0,10.0,63,0.00,BKN,SCT,0.00,0.0,WeatherDisplay:10.37,2013-02-11 19:15:00,
2013-02-11 14:25:00,39.4,27.4,29.93,West,261,2.0,8.0,62,0.00,BKN,SCT,0.00,0.0,WeatherDisplay:10.37,2013-02-11 19:25:00,
2013-02-11 14:30:00,39.4,27.4,29.93,WSW,239,5.0,10.0,62,0.00,BKN,SCT,0.00,0.0,WeatherDisplay:10.37,2013-02-11 19:30:00,
2013-02-11 14:35:00,39.3,27.7,29.94,West,261,8.0,10.0,63,0.00,BKN,SCT,0.00,0.0,WeatherDisplay:10.37,2013-02-11 19:35:00,
2013-02-11 14:45:00,39.0,27.5,29.94,SW,223,1.0,9.0,63,0.00,BKN,SCT,0.00,0.0,WeatherDisplay:10.37,2013-02-11 19:45:00,
2013-02-11 14:55:00,39.0,27.5,29.95,WSW,245,2.0,8.0,63,0.00,BKN,SCT,0.00,0.0,WeatherDisplay:10.37,2013-02-11 19:55:00,
2013-02-11 15:05:00,38.8,27.3,29.95,WSW,245,2.0,7.0,63,0.00,BKN,SCT,0.00,0.0,WeatherDisplay:10.37,2013-02-11 20:05:00,
2013-02-11 15:10:00,38.8,27.3,29.95,SW,230,5.0,16.0,63,0.00,BKN,SCT,0.00,0.0,WeatherDisplay:10.37,2013-02-11 20:10:00,
2013-02-11 15:20:00,38.8,27.3,29.96,SW,227,7.0,15.0,63,0.00,BKN,SCT,0.00,0.0,WeatherDisplay:10.37,2013-02-11 20:20:00,
2013-02-11 15:30:00,38.7,27.1,29.97,SSW,208,1.0,8.0,63,0.00,BKN,SCT,0.00,0.0,WeatherDisplay:10.37,2013-02-11 20:30:00,
2013-02-11 15:35:00,38.8,27.3,29.97,WSW,248,6.0,12.0,63,0.00,BKN,SCT,0.00,0.0,WeatherDisplay:10.37,2013-02-11 20:35:00,
2013-02-11 15:40:00,38.7,27.1,29.97,West,259,3.0,12.0,63,0.00,BKN,SCT,0.00,0.0,WeatherDisplay:10.37,2013-02-11 20:40:00,
2013-02-11 15:45:00,38.6,27.0,29.97,WSW,251,2.0,7.0,63,0.00,BKN,SCT,0.00,0.0,WeatherDisplay:10.37,2013-02-11 20:45:00,
2013-02-11 15:50:00,38.8,27.3,29.97,WSW,249,0.0,8.0,63,0.00,BKN,SCT,0.00,0.0,WeatherDisplay:10.37,2013-02-11 20:50:00,
2013-02-11 15:55:00,38.8,27.3,29.97,SW,215,5.0,10.0,63,0.00,BKN,SCT,0.00,0.0,WeatherDisplay:10.37,2013-02-11 20:55:00,
2013-02-11 16:05:00,38.8,27.3,29.97,WSW,254,1.0,9.0,63,0.00,BKN,SCT,0.00,0.0,WeatherDisplay:10.37,2013-02-11 21:05:00,
2013-02-11 16:10:00,39.0,27.4,29.97,WSW,238,2.0,10.0,63,0.00,BKN,SCT,0.00,0.0,WeatherDisplay:10.37,2013-02-11 21:10:00,
2013-02-11 16:15:00,38.8,27.3,29.98,West,270,6.0,9.0,63,0.00,BKN,SCT,0.00,0.0,WeatherDisplay:10.37,2013-02-11 21:15:00,
2013-02-11 16:25:00,38.8,27.3,29.98,WSW,242,2.0,9.0,63,0.00,BKN,SCT,0.00,0.0,WeatherDisplay:10.37,2013-02-11 21:25:00,
2013-02-11 16:35:00,38.8,27.3,29.98,West,261,3.0,9.0,63,0.00,BKN,SCT,0.00,0.0,WeatherDisplay:10.37,2013-02-11 21:35:00,
2013-02-11 16:40:00,38.8,27.3,29.98,WSW,244,1.0,10.0,63,0.00,BKN,SCT,0.00,0.0,WeatherDisplay:10.37,2013-02-11 21:40:00,
2013-02-11 16:50:00,38.8,27.3,29.98,West,270,2.0,6.0,63,0.00,BKN,SCT,0.00,0.0,WeatherDisplay:10.37,2013-02-11 21:50:00,
2013-02-11 16:55:00,38.8,27.3,29.98,West,266,2.0,8.0,63,0.00,BKN,SCT,0.00,0.0,WeatherDisplay:10.37,2013-02-11 21:55:00,
2013-02-11 17:00:00,38.8,27.7,29.98,WSW,249,0.0,7.0,64,0.00,BKN,SCT,0.00,0.0,WeatherDisplay:10.37,2013-02-11 22:00:00,
2013-02-11 17:10:00,39.0,27.9,29.98,WSW,245,1.0,11.0,64,0.00,BKN,SCT,0.00,0.0,WeatherDisplay:10.37,2013-02-11 22:10:00,
2013-02-11 17:15:00,39.0,27.9,29.98,WSW,248,3.0,7.0,64,0.00,BKN,SCT,0.00,0.0,WeatherDisplay:10.37,2013-02-11 22:15:00,
2013-02-11 17:25:00,39.0,27.9,29.97,WSW,243,1.0,5.0,64,0.00,BKN,SCT,0.00,0.0,WeatherDisplay:10.37,2013-02-11 22:25:00,
2013-02-11 17:30:00,39.0,28.2,29.98,West,269,3.0,7.0,65,0.00,BKN,SCT,0.00,0.0,WeatherDisplay:10.37,2013-02-11 22:30:00,
2013-02-11 17:35:00,39.0,28.2,29.97,WSW,247,1.0,10.0,65,0.00,BKN,SCT,0.00,0.0,WeatherDisplay:10.37,2013-02-11 22:35:00,
2013-02-11 17:45:00,39.0,28.2,29.98,WSW,244,2.0,8.0,65,0.00,BKN,SCT,0.00,0.0,WeatherDisplay:10.37,2013-02-11 22:45:00,
2013-02-11 17:50:00,39.0,28.6,29.99,WSW,246,0.0,7.0,66,0.00,BKN,SCT,0.00,0.0,WeatherDisplay:10.37,2013-02-11 22:50:00,
2013-02-11 18:00:00,39.0,28.6,29.99,WSW,256,3.0,8.0,66,0.00,BKN,SCT,0.00,0.0,WeatherDisplay:10.37,2013-02-11 23:00:00,
2013-02-11 18:05:00,39.1,28.7,29.98,WSW,256,1.0,9.0,66,0.00,BKN,SCT,0.00,0.0,WeatherDisplay:10.37,2013-02-11 23:05:00,
2013-02-11 18:10:00,39.2,28.8,29.98,WSW,251,1.0,7.0,66,0.00,BKN,SCT,0.00,0.0,WeatherDisplay:10.37,2013-02-11 23:10:00,
2013-02-11 18:20:00,39.0,28.6,29.99,WSW,258,1.0,9.0,66,0.00,BKN,SCT,0.00,0.0,WeatherDisplay:10.37,2013-02-11 23:20:00,
2013-02-11 18:25:00,39.0,28.6,29.99,West,259,3.0,7.0,66,0.00,BKN,SCT,0.00,0.0,WeatherDisplay:10.37,2013-02-11 23:25:00,
2013-02-11 18:35:00,39.0,29.0,30.00,WSW,253,2.0,8.0,67,0.00,BKN,SCT,0.00,0.0,WeatherDisplay:10.37,2013-02-11 23:35:00,
2013-02-11 18:40:00,38.8,28.8,30.00,WSW,251,0.0,5.0,67,0.00,BKN,SCT,0.00,0.0,WeatherDisplay:10.37,2013-02-11 23:40:00,
2013-02-11 18:45:00,38.8,28.8,30.00,WSW,252,0.0,5.0,67,0.00,BKN,SCT,0.00,0.0,WeatherDisplay:10.37,2013-02-11 23:45:00,
2013-02-11 18:55:00,38.5,28.8,30.00,West,272,0.0,6.0,68,0.00,BKN,SCT,0.00,0.0,WeatherDisplay:10.37,2013-02-11 23:55:00,
2013-02-11 19:00:00,38.3,28.7,30.00,SW,236,2.0,9.0,68,0.00,BKN,SCT,0.00,0.0,WeatherDisplay:10.37,2013-02-12 00:00:00,
2013-02-11 19:05:00,38.3,28.7,30.01,WSW,249,0.0,6.0,68,0.00,BKN,SCT,0.00,0.0,WeatherDisplay:10.37,2013-02-12 00:05:00,
2013-02-11 19:15:00,38.2,28.9,30.01,WSW,254,2.0,6.0,69,0.00,BKN,SCT,0.00,0.0,WeatherDisplay:10.37,2013-02-12 00:15:00,
2013-02-11 19:25:00,38.1,28.8,30.01,WSW,243,0.0,5.0,69,0.00,BKN,SCT,0.00,0.0,WeatherDisplay:10.37,2013-02-12 00:25:00,
2013-02-11 19:30:00,37.9,28.7,30.01,WSW,254,0.0,4.0,69,0.00,BKN,SCT,0.00,0.0,WeatherDisplay:10.37,2013-02-12 00:30:00,
2013-02-11 19:35:00,37.9,28.7,30.01,West,260,3.0,9.0,69,0.00,BKN,SCT,0.00,0.0,WeatherDisplay:10.37,2013-02-12 00:35:00,
2013-02-11 19:40:00,37.8,28.5,30.01,WSW,240,0.0,4.0,69,0.00,BKN,SCT,0.00,0.0,WeatherDisplay:10.37,2013-02-12 00:40:00,
2013-02-11 19:45:00,37.6,28.7,30.02,SW,235,1.0,5.0,70,0.00,BKN,SCT,0.00,0.0,WeatherDisplay:10.37,2013-02-12 00:45:00,
2013-02-11 19:55:00,37.4,28.5,30.02,WSW,249,0.0,3.0,70,0.00,BKN,SCT,0.00,0.0,WeatherDisplay:10.37,2013-02-12 00:55:00,
2013-02-11 20:00:00,37.2,28.3,30.02,WSW,246,1.0,6.0,70,0.00,BKN,SCT,0.00,0.0,WeatherDisplay:10.37,2013-02-12 01:00:00,
2013-02-11 20:05:00,37.2,28.3,30.03,WSW,251,0.0,6.0,70,0.00,BKN,SCT,0.00,0.0,WeatherDisplay:10.37,2013-02-12 01:05:00,
2013-02-11 20:10:00,37.2,28.3,30.03,WSW,242,1.0,8.0,70,0.00,BKN,SCT,0.00,0.0,WeatherDisplay:10.37,2013-02-12 01:10:00,
2013-02-11 20:15:00,37.2,28.3,30.03,WSW,244,1.0,7.0,70,0.00,BKN,SCT,0.00,0.0,WeatherDisplay:10.37,2013-02-12 01:15:00,
2013-02-11 20:20:00,37.0,28.2,30.03,WSW,251,1.0,2.0,70,0.00,SCT,SCT,0.00,0.0,WeatherDisplay:10.37,2013-02-12 01:20:00,
2013-02-11 20:25:00,36.9,28.0,30.03,WSW,250,5.0,9.0,70,0.00,SCT,SCT,0.00,0.0,WeatherDisplay:10.37,2013-02-12 01:25:00,
2013-02-11 20:30:00,36.7,27.8,30.03,WSW,239,0.0,7.0,70,0.00,SCT,SCT,0.00,0.0,WeatherDisplay:10.37,2013-02-12 01:30:00,
2013-02-11 20:35:00,36.5,27.6,30.03,WSW,239,1.0,7.0,70,0.00,SCT,SCT,0.00,0.0,WeatherDisplay:10.37,2013-02-12 01:35:00,
2013-02-11 20:40:00,36.5,28.0,30.03,WSW,251,3.0,6.0,71,0.00,SCT,SCT,0.00,0.0,WeatherDisplay:10.37,2013-02-12 01:40:00,
2013-02-11 20:45:00,36.3,27.8,30.03,West,259,0.0,2.0,71,0.00,SCT,SCT,0.00,0.0,WeatherDisplay:10.37,2013-02-12 01:45:00,
2013-02-11 20:50:00,36.3,27.8,30.03,West,263,0.0,3.0,71,0.00,SCT,SCT,0.00,0.0,WeatherDisplay:10.37,2013-02-12 01:50:00,
2013-02-11 20:55:00,36.2,27.7,30.03,SW,233,0.0,2.0,71,0.00,SCT,SCT,0.00,0.0,WeatherDisplay:10.37,2013-02-12 01:55:00,
2013-02-11 21:00:00,36.1,27.6,30.04,WSW,246,0.0,3.0,71,0.00,SCT,SCT,0.00,0.0,WeatherDisplay:10.37,2013-02-12 02:00:00,
2013-02-11 21:05:00,35.8,27.3,30.03,WSW,254,0.0,0.0,71,0.00,SCT,SCT,0.00,0.0,WeatherDisplay:10.37,2013-02-12 02:05:00,
2013-02-11 21:10:00,35.7,27.5,30.03,West,261,0.0,0.0,72,0.00,SCT,SCT,0.00,0.0,WeatherDisplay:10.37,2013-02-12 02:10:00,
2013-02-11 21:15:00,35.4,27.3,30.04,West,261,0.0,0.0,72,0.00,SCT,SCT,0.00,0.0,WeatherDisplay:10.37,2013-02-12 02:15:00,
2013-02-11 21:20:00,35.2,27.1,30.04,WSW,251,0.0,0.0,72,0.00,FEW,SCT,0.00,0.0,WeatherDisplay:10.37,2013-02-12 02:20:00,
2013-02-11 21:30:00,34.9,26.8,30.04,West,265,0.0,0.0,72,0.00,FEW,SCT,0.00,0.0,WeatherDisplay:10.37,2013-02-12 02:30:00,
2013-02-11 21:40:00,34.3,26.2,30.04,WSW,252,0.0,0.0,72,0.00,FEW,SCT,0.00,0.0,WeatherDisplay:10.37,2013-02-12 02:40:00,
2013-02-11 21:50:00,34.3,26.5,30.04,West,270,0.0,0.0,73,0.00,FEW,SCT,0.00,0.0,WeatherDisplay:10.37,2013-02-12 02:50:00,
2013-02-11 21:55:00,34.2,26.4,30.04,West,270,0.0,0.0,73,0.00,FEW,SCT,0.00,0.0,WeatherDisplay:10.37,2013-02-12 02:55:00,
2013-02-11 22:00:00,33.6,25.9,30.04,West,276,0.0,0.0,73,0.00,FEW,SCT,0.00,0.0,WeatherDisplay:10.37,2013-02-12 03:00:00,
2013-02-11 22:10:00,33.4,26.0,30.04,WNW,294,0.0,0.0,74,0.00,FEW,SCT,0.00,0.0,WeatherDisplay:10.37,2013-02-12 03:10:00,
2013-02-11 22:20:00,32.9,25.5,30.05,NW,308,0.0,0.0,74,0.00,CLR,SCT,0.00,0.0,WeatherDisplay:10.37,2013-02-12 03:20:00,
2013-02-11 22:25:00,32.8,25.4,30.04,WNW,301,0.0,0.0,74,0.00,CLR,SCT,0.00,0.0,WeatherDisplay:10.37,2013-02-12 03:25:00,
2013-02-11 22:35:00,32.5,25.5,30.05,WSW,256,0.0,2.0,75,0.00,CLR,SCT,0.00,0.0,WeatherDisplay:10.37,2013-02-12 03:35:00,
2013-02-11 22:40:00,32.4,25.6,30.05,West,259,0.0,3.0,76,0.00,CLR,SCT,0.00,0.0,WeatherDisplay:10.37,2013-02-12 03:40:00,
2013-02-11 22:50:00,32.2,25.5,30.05,West,276,0.0,3.0,76,0.00,CLR,SCT,0.00,0.0,WeatherDisplay:10.37,2013-02-12 03:50:00,
2013-02-11 22:55:00,31.8,25.1,30.06,West,275,0.0,5.0,76,0.00,CLR,SCT,0.00,0.0,WeatherDisplay:10.37,2013-02-12 03:55:00,
2013-02-11 23:00:00,31.8,25.4,30.06,West,276,0.0,2.0,77,0.00,CLR,SCT,0.00,0.0,WeatherDisplay:10.37,2013-02-12 04:00:00,
2013-02-11 23:05:00,31.8,25.4,30.06,WSW,243,2.0,8.0,77,0.00,CLR,SCT,0.00,0.0,WeatherDisplay:10.37,2013-02-12 04:05:00,
2013-02-11 23:10:00,31.8,25.4,30.06,WSW,254,0.0,1.0,77,0.00,CLR,SCT,0.00,0.0,WeatherDisplay:10.37,2013-02-12 04:10:00,
2013-02-11 23:20:00,31.8,25.4,30.05,WSW,253,0.0,5.0,77,0.00,CLR,SCT,0.00,0.0,WeatherDisplay:10.37,2013-02-12 04:20:00,
2013-02-11 23:30:00,31.6,25.3,30.06,West,265,1.0,5.0,77,0.00,CLR,SCT,0.00,0.0,WeatherDisplay:10.37,2013-02-12 04:30:00,
2013-02-11 23:35:00,31.6,25.6,30.06,WSW,256,2.0,6.0,78,0.00,CLR,SCT,0.00,0.0,WeatherDisplay:10.37,2013-02-12 04:35:00,
2013-02-11 23:40:00,31.6,25.6,30.06,SW,227,1.0,5.0,78,0.00,CLR,SCT,0.00,0.0,WeatherDisplay:10.37,2013-02-12 04:40:00,
2013-02-11 23:50:00,31.5,25.4,30.05,West,277,0.0,8.0,78,0.00,CLR,SCT,0.00,0.0,WeatherDisplay:10.37,2013-02-12 04:50:00,
2013-02-11 23:55:00,31.3,25.2,30.06,West,277,0.0,1.0,78,0.00,CLR,SCT,0.00,0.0,WeatherDisplay:10.37,2013-02-12 04:55:00,